| time (UTC) | temp F | wind direction | speed knots | gust knots | rain 1hr in | rain 24hr in | rain mn in | humidity % | barometer mb |
| 20260906034722 | 52 | 226 | 3.5 | 5.2 | 0.06 | 0.36 | 0.26 | 97 | 1004.0 |
| 20260906034222 | 52 | 226 | 3.5 | 6.1 | 0.06 | 0.36 | 0.26 | 97 | 1004.0 |
| 20260906033941 | 52 | 226 | 3.5 | 6.1 | 0.06 | 0.36 | 0.26 | 97 | 1004.0 |
| 20260906033219 | 52 | 230 | 3.5 | 6.1 | 0.06 | 0.36 | 0.26 | 97 | 1003.9 |
| 20260906032720 | 52 | 219 | 3.5 | 5.2 | 0.06 | 0.36 | 0.26 | 97 | 1003.9 |
| 20260906032219 | 52 | 218 | 2.6 | 4.3 | 0.06 | 0.36 | 0.26 | 97 | 1003.8 |
| 20260906031719 | 52 | 281 | 1.7 | 3.5 | 0.07 | 0.36 | 0.26 | 97 | 1003.7 |
| 20260906031217 | 52 | 282 | 1.7 | 3.5 | 0.06 | 0.35 | 0.25 | 97 | 1003.7 |
| 20260906030728 | 52 | 282 | 3.5 | 7.0 | 0.06 | 0.35 | 0.24 | 97 | 1003.7 |
| 20260906030215 | 52 | 284 | 5.2 | 9.6 | 0.06 | 0.35 | 0.24 | 97 | 1003.7 |
| 20260906030156 | 52 | 291 | 5.2 | 9.6 | 0.06 | 0.34 | 0.24 | 97 | 1003.7 |
| 20260906025214 | 52 | 281 | 3.5 | 8.7 | 0.03 | 0.31 | 0.22 | 97 | 1003.6 |
| 20260906024937 | 52 | 194 | 2.6 | 4.3 | 0.03 | 0.31 | 0.21 | 97 | 1003.6 |
| 20260906024214 | 52 | 192 | 3.5 | 5.2 | 0.04 | 0.31 | 0.20 | 97 | 1003.6 |
| 20260906023713 | 52 | 187 | 3.5 | 6.1 | 0.03 | 0.30 | 0.20 | 97 | 1003.6 |
| 20260906023213 | 52 | 221 | 3.5 | 6.1 | 0.03 | 0.30 | 0.20 | 97 | 1003.7 |
| 20260906022712 | 52 | 219 | 2.6 | 5.2 | 0.03 | 0.30 | 0.20 | 97 | 1003.5 |
| 20260906022426 | 52 | 215 | 3.5 | 6.1 | 0.03 | 0.30 | 0.20 | 97 | 1003.5 |
| 20260906021715 | 52 | 219 | 3.5 | 6.1 | 0.03 | 0.29 | 0.19 | 97 | 1003.6 |
| 20260906021157 | 52 | 215 | 2.6 | 5.2 | 0.04 | 0.29 | 0.19 | 97 | 1003.4 |
| 20260906020654 | 52 | 214 | 2.6 | 4.3 | 0.04 | 0.29 | 0.19 | 97 | 1003.3 |
| 20260906020416 | 52 | 213 | 2.6 | 5.2 | 0.04 | 0.29 | 0.19 | 97 | 1003.2 |
| 20260906015916 | 52 | 217 | 3.5 | 6.1 | 0.03 | 0.28 | 0.18 | 97 | 1003.3 |
| 20260906015416 | 52 | 241 | 3.5 | 6.1 | 0.03 | 0.28 | 0.18 | 97 | 1003.2 |
| 20260906014654 | 52 | 214 | 2.6 | 4.3 | 0.02 | 0.28 | 0.17 | 97 | 1003.2 |
| 20260906014415 | 52 | 225 | 1.7 | 3.5 | 0.02 | 0.27 | 0.17 | 97 | 1003.2 |
| 20260906013654 | 52 | 225 | 1.7 | 3.5 | 0.03 | 0.27 | 0.17 | 97 | 1003.0 |
| 20260906013152 | 52 | 224 | 0.9 | 2.6 | 0.03 | 0.27 | 0.17 | 98 | 1002.9 |
| 20260906012652 | 52 | 224 | 0.9 | 2.6 | 0.03 | 0.27 | 0.17 | 98 | 1002.9 |
| 20260906012149 | 52 | 224 | 0.9 | 2.6 | 0.04 | 0.27 | 0.17 | 98 | 1002.7 |
| 20260906011649 | 52 | 224 | 1.7 | 3.5 | 0.06 | 0.26 | 0.16 | 98 | 1002.9 |
| 20260906011150 | 52 | 224 | 2.6 | 3.5 | 0.05 | 0.25 | 0.15 | 97 | 1002.9 |
| 20260906010650 | 53 | 224 | 2.6 | 4.3 | 0.05 | 0.25 | 0.15 | 97 | 1002.6 |
| 20260906010201 | 53 | 225 | 2.6 | 4.3 | 0.05 | 0.25 | 0.15 | 97 | 1002.8 |
| 20260906005649 | 53 | 280 | 2.6 | 3.5 | 0.05 | 0.25 | 0.15 | 97 | 1002.9 |
| 20260906005148 | 53 | 280 | 1.7 | 3.5 | 0.05 | 0.25 | 0.15 | 97 | 1002.7 |
| 20260906004650 | 53 | 280 | 1.7 | 3.5 | 0.05 | 0.25 | 0.15 | 98 | 1002.9 |
| 20260906004147 | 53 | 280 | 1.7 | 3.5 | 0.04 | 0.24 | 0.15 | 98 | 1002.9 |
| 20260906003644 | 53 | 280 | 1.7 | 3.5 | 0.03 | 0.24 | 0.13 | 98 | 1002.9 |
| 20260906003144 | 53 | 280 | 0.9 | 2.6 | 0.03 | 0.24 | 0.13 | 98 | 1002.8 |
| 20260906002646 | 53 | 280 | 0.0 | 2.6 | 0.04 | 0.24 | 0.13 | 98 | 1002.6 |
| 20260906002144 | 53 | 280 | 0.0 | 0.0 | 0.03 | 0.23 | 0.13 | 98 | 1002.6 |
| 20260906001643 | 53 | 280 | 0.0 | 0.0 | 0.02 | 0.20 | 0.11 | 98 | 1002.5 |
| 20260906001142 | 53 | 280 | 0.0 | 0.0 | 0.03 | 0.20 | 0.10 | 98 | 1002.5 |
| 20260906001129 | 53 | 280 | 0.0 | 0.0 | 0.04 | 0.20 | 0.10 | 98 | 1002.5 |
| 20260906000140 | 53 | 280 | 0.0 | 0.9 | 0.05 | 0.20 | 0.10 | 97 | 1002.4 |
| 20260905235642 | 53 | 280 | 0.9 | 2.6 | 0.05 | 0.20 | 0.10 | 97 | 1002.6 |
| 20260905235138 | 53 | 280 | 1.7 | 2.6 | 0.05 | 0.20 | 0.10 | 97 | 1002.6 |
| 20260905234900 | 53 | 280 | 1.7 | 2.6 | 0.06 | 0.20 | 0.10 | 97 | 1002.6 |
| 20260905234140 | 53 | 280 | 0.9 | 2.6 | 0.06 | 0.20 | 0.10 | 97 | 1002.7 |
| 20260905233637 | 53 | 280 | 0.9 | 2.6 | 0.06 | 0.20 | 0.10 | 97 | 1002.5 |
| 20260905233136 | 53 | 280 | 0.9 | 2.6 | 0.06 | 0.20 | 0.10 | 97 | 1002.3 |
| 20260905232634 | 53 | 280 | 0.9 | 2.6 | 0.05 | 0.20 | 0.09 | 97 | 1002.3 |
| 20260905232352 | 53 | 280 | 1.7 | 2.6 | 0.05 | 0.20 | 0.09 | 97 | 1002.3 |
| 20260905231634 | 53 | 280 | 1.7 | 2.6 | 0.04 | 0.19 | 0.09 | 97 | 1002.3 |
| 20260905231626 | 53 | 280 | 1.7 | 2.6 | 0.03 | 0.17 | 0.08 | 97 | 1002.3 |
| 20260905230634 | 53 | 280 | 0.9 | 3.5 | 0.03 | 0.17 | 0.06 | 97 | 1002.3 |
| 20260905230132 | 53 | 280 | 0.0 | 3.5 | 0.03 | 0.16 | 0.06 | 97 | 1002.2 |
| 20260905225851 | 53 | 280 | 0.9 | 2.6 | 0.03 | 0.16 | 0.06 | 97 | 1002.2 |
| 20260905225132 | 53 | 280 | 0.9 | 2.6 | 0.03 | 0.16 | 0.06 | 97 | 1002.3 |
| 20260905224631 | 53 | 280 | 0.9 | 2.6 | 0.02 | 0.15 | 0.05 | 97 | 1002.2 |
| 20260905224128 | 53 | 280 | 1.7 | 3.5 | 0.02 | 0.15 | 0.05 | 97 | 1002.1 |
| 20260905223628 | 53 | 280 | 2.6 | 5.2 | 0.02 | 0.15 | 0.05 | 97 | 1002.1 |
| 20260905223129 | 53 | 281 | 2.6 | 5.2 | 0.02 | 0.15 | 0.05 | 97 | 1002.2 |
| 20260905222628 | 53 | 281 | 3.5 | 6.1 | 0.02 | 0.15 | 0.05 | 97 | 1002.1 |
| 20260905222129 | 53 | 284 | 3.5 | 6.1 | 0.02 | 0.15 | 0.05 | 97 | 1002.1 |
| 20260905221626 | 53 | 269 | 3.5 | 5.2 | 0.04 | 0.15 | 0.05 | 97 | 1001.8 |
| 20260905221346 | 53 | 276 | 3.5 | 7.0 | 0.03 | 0.14 | 0.04 | 97 | 1001.9 |
| 20260905220621 | 53 | 268 | 3.5 | 7.8 | 0.02 | 0.13 | 0.03 | 97 | 1001.8 |
| 20260905220115 | 53 | 278 | 3.5 | 7.8 | 0.02 | 0.13 | 0.02 | 97 | 1002.0 |
| 20260905215610 | 53 | 226 | 2.6 | 5.2 | 0.02 | 0.13 | 0.02 | 97 | 1001.9 |
| 20260905215327 | 53 | 228 | 2.6 | 5.2 | 0.02 | 0.13 | 0.02 | 97 | 1002.0 |
| 20260905214610 | 53 | 231 | 2.6 | 5.2 | 0.02 | 0.13 | 0.02 | 97 | 1002.0 |
| 20260905214108 | 54 | 225 | 2.6 | 7.0 | 0.02 | 0.13 | 0.02 | 97 | 1001.9 |
| 20260905213608 | 54 | 247 | 3.5 | 7.0 | 0.02 | 0.13 | 0.02 | 97 | 1001.8 |
| 20260905213108 | 54 | 304 | 3.5 | 7.0 | 0.02 | 0.13 | 0.02 | 97 | 1001.8 |
| 20260905212605 | 54 | 292 | 3.5 | 7.0 | 0.02 | 0.13 | 0.02 | 97 | 1001.9 |
| 20260905212103 | 54 | 285 | 3.5 | 7.0 | 0.02 | 0.13 | 0.02 | 97 | 1001.9 |
| 20260905211558 | 54 | 279 | 1.7 | 6.1 | 0.01 | 0.11 | 0.01 | 97 | 1001.6 |
| 20260905211053 | 54 | 273 | 0.9 | 5.2 | 0.01 | 0.11 | 0.01 | 97 | 1001.4 |
| 20260905210548 | 54 | 300 | 0.0 | 1.7 | 0.01 | 0.11 | 0.01 | 97 | 1001.5 |
| 20260905210059 | 54 | 300 | 0.0 | 1.7 | 0.00 | 0.10 | 0.00 | 97 | 1001.6 |
| 20260905210039 | 54 | 300 | 0.0 | 1.7 | 0.00 | 0.10 | 0.11 | 97 | 1001.5 |
| 20260905205306 | 54 | 300 | 0.9 | 2.6 | 0.00 | 0.10 | 0.11 | 97 | 1001.4 |
| 20260905204540 | 54 | 300 | 1.7 | 2.6 | 0.00 | 0.10 | 0.11 | 97 | 1001.4 |
| 20260905204039 | 55 | 300 | 1.7 | 3.5 | 0.00 | 0.10 | 0.11 | 97 | 1001.4 |
| 20260905203759 | 55 | 300 | 1.7 | 3.5 | 0.00 | 0.10 | 0.11 | 97 | 1001.3 |
| 20260905203036 | 55 | 301 | 1.7 | 2.6 | 0.00 | 0.10 | 0.11 | 97 | 1001.3 |
| 20260905202530 | 55 | 301 | 1.7 | 2.6 | 0.00 | 0.10 | 0.11 | 97 | 1001.2 |
| 20260905202231 | 55 | 301 | 2.6 | 3.5 | 0.00 | 0.10 | 0.11 | 97 | 1001.1 |
| 20260905202123 | 55 | 301 | 1.7 | 3.5 | 0.00 | 0.10 | 0.11 | 97 | 1001.1 |
| 20260905201025 | 55 | 302 | 3.5 | 8.7 | 0.00 | 0.10 | 0.11 | 97 | 1001.0 |
| 20260905200525 | 55 | 302 | 3.5 | 8.7 | 0.00 | 0.10 | 0.11 | 97 | 1001.0 |
| 20260905200021 | 55 | 293 | 2.6 | 7.8 | 0.00 | 0.10 | 0.11 | 97 | 1001.2 |
| 20260905195522 | 55 | 332 | 1.7 | 5.2 | 0.02 | 0.10 | 0.11 | 97 | 1001.1 |
| 20260905195021 | 55 | 229 | 1.7 | 3.5 | 0.02 | 0.10 | 0.11 | 97 | 1001.0 |
| 20260905194522 | 55 | 228 | 0.9 | 3.5 | 0.02 | 0.10 | 0.11 | 97 | 1001.0 |
| 20260905194020 | 55 | 222 | 0.9 | 3.5 | 0.02 | 0.10 | 0.11 | 97 | 1000.9 |
| 20260905193519 | 55 | 222 | 1.7 | 5.2 | 0.02 | 0.10 | 0.11 | 97 | 1000.9 |
| 20260905193017 | 55 | 222 | 2.6 | 5.2 | 0.02 | 0.10 | 0.11 | 97 | 1000.9 |
| 20260905192519 | 55 | 218 | 2.6 | 5.2 | 0.02 | 0.10 | 0.11 | 97 | 1000.6 |
| 20260905192019 | 55 | 230 | 1.7 | 3.5 | 0.02 | 0.10 | 0.11 | 97 | 1000.7 |
| 20260905191530 | 55 | 230 | 1.7 | 3.5 | 0.02 | 0.10 | 0.11 | 97 | 1000.6 |
| 20260905191017 | 55 | 268 | 1.7 | 3.5 | 0.02 | 0.10 | 0.11 | 97 | 1000.5 |
| 20260905190516 | 55 | 294 | 1.7 | 3.5 | 0.02 | 0.10 | 0.11 | 97 | 1000.5 |
| 20260905190235 | 55 | 294 | 2.6 | 4.3 | 0.02 | 0.10 | 0.11 | 97 | 1000.4 |
| 20260905185505 | 55 | 294 | 2.6 | 6.1 | 0.01 | 0.09 | 0.10 | 96 | 1000.4 |
| 20260905184958 | 55 | 298 | 2.6 | 6.1 | 0.00 | 0.08 | 0.09 | 96 | 1000.6 |
| 20260905184457 | 55 | 269 | 2.6 | 5.2 | 0.00 | 0.08 | 0.09 | 96 | 1000.5 |
| 20260905183958 | 55 | 269 | 2.6 | 5.2 | 0.00 | 0.08 | 0.09 | 96 | 1000.4 |
| 20260905183458 | 55 | 269 | 3.5 | 6.1 | 0.00 | 0.08 | 0.09 | 96 | 1000.3 |
| 20260905182957 | 55 | 269 | 3.5 | 6.1 | 0.00 | 0.08 | 0.09 | 96 | 1000.3 |
| 20260905182458 | 55 | 300 | 2.6 | 6.1 | 0.01 | 0.08 | 0.09 | 96 | 1000.2 |
| 20260905182222 | 55 | 304 | 3.5 | 5.2 | 0.02 | 0.08 | 0.09 | 95 | 1000.1 |
| 20260905181457 | 55 | 284 | 3.5 | 5.2 | 0.06 | 0.08 | 0.09 | 95 | 1000.2 |
| 20260905181221 | 55 | 284 | 4.3 | 7.0 | 0.07 | 0.08 | 0.09 | 95 | 1000.1 |
| 20260905180510 | 55 | 311 | 4.3 | 7.8 | 0.07 | 0.08 | 0.09 | 95 | 1000.0 |
| 20260905175957 | 56 | 296 | 5.2 | 7.8 | 0.08 | 0.08 | 0.09 | 94 | 999.7 |
| 20260905175458 | 56 | 299 | 5.2 | 7.8 | 0.08 | 0.08 | 0.09 | 94 | 999.7 |
| 20260905175216 | 56 | 304 | 4.3 | 7.8 | 0.08 | 0.08 | 0.09 | 94 | 999.7 |
| 20260905174454 | 56 | 315 | 3.5 | 7.0 | 0.08 | 0.08 | 0.09 | 94 | 999.5 |
| 20260905173957 | 56 | 304 | 3.5 | 6.1 | 0.08 | 0.08 | 0.09 | 93 | 999.4 |
| 20260905173448 | 56 | 304 | 3.5 | 7.0 | 0.08 | 0.08 | 0.09 | 93 | 999.4 |
| 20260905172943 | 56 | 336 | 5.2 | 9.6 | 0.08 | 0.08 | 0.09 | 93 | 999.2 |
| 20260905172436 | 57 | 310 | 4.3 | 9.6 | 0.07 | 0.07 | 0.08 | 93 | 999.2 |
| 20260905171935 | 57 | 0 | 2.6 | 7.8 | 0.06 | 0.06 | 0.07 | 93 | 999.1 |
| 20260905171432 | 58 | 306 | 1.7 | 6.1 | 0.02 | 0.02 | 0.03 | 93 | 998.8 |
| 20260905170930 | 58 | 294 | 2.6 | 6.1 | 0.01 | 0.01 | 0.02 | 93 | 998.7 |
| 20260905170653 | 58 | 235 | 2.6 | 4.3 | 0.01 | 0.01 | 0.02 | 93 | 998.6 |
| 20260905165931 | 58 | 234 | 2.6 | 4.3 | 0.00 | 0.00 | 0.01 | 93 | 998.4 |
| 20260905165431 | 58 | 236 | 1.7 | 4.3 | 0.00 | 0.00 | 0.01 | 92 | 998.4 |
| 20260905165152 | 58 | 238 | 1.7 | 3.5 | 0.00 | 0.00 | 0.01 | 92 | 998.5 |
| 20260905164641 | 58 | 238 | 1.7 | 3.5 | 0.00 | 0.00 | 0.01 | 92 | 998.5 |
| 20260905163922 | 58 | 238 | 2.6 | 6.1 | 0.00 | 0.00 | 0.01 | 92 | 998.5 |
| 20260905163424 | 58 | 238 | 2.6 | 6.1 | 0.00 | 0.00 | 0.01 | 91 | 998.4 |
| 20260905162923 | 59 | 238 | 2.6 | 6.1 | 0.00 | 0.00 | 0.01 | 91 | 998.4 |
| 20260905162418 | 59 | 239 | 3.5 | 6.1 | 0.00 | 0.00 | 0.01 | 91 | 998.5 |
| 20260905161918 | 59 | 234 | 3.5 | 7.0 | 0.00 | 0.00 | 0.01 | 90 | 998.3 |
| 20260905161417 | 59 | 217 | 4.3 | 8.7 | 0.00 | 0.00 | 0.01 | 89 | 998.4 |
| 20260905160917 | 59 | 216 | 5.2 | 9.6 | 0.00 | 0.00 | 0.01 | 89 | 998.3 |
| 20260905160416 | 59 | 216 | 5.2 | 9.6 | 0.00 | 0.00 | 0.01 | 89 | 998.3 |
| 20260905160140 | 59 | 307 | 5.2 | 9.6 | 0.00 | 0.00 | 0.01 | 89 | 998.3 |
| 20260905155414 | 59 | 289 | 6.1 | 10.4 | 0.00 | 0.00 | 0.01 | 89 | 998.3 |
| 20260905154914 | 59 | 275 | 5.2 | 10.4 | 0.00 | 0.00 | 0.01 | 89 | 998.4 |
| 20260905154416 | 59 | 247 | 5.2 | 9.6 | 0.00 | 0.00 | 0.01 | 88 | 998.3 |
| 20260905153915 | 60 | 234 | 6.1 | 12.2 | 0.00 | 0.00 | 0.01 | 87 | 998.4 |
| 20260905153631 | 60 | 237 | 5.2 | 12.2 | 0.00 | 0.00 | 0.01 | 85 | 998.5 |
| 20260905152916 | 61 | 258 | 2.6 | 8.7 | 0.00 | 0.00 | 0.01 | 85 | 998.4 |
| 20260905152416 | 61 | 227 | 2.6 | 6.1 | 0.00 | 0.00 | 0.01 | 84 | 998.2 |
| 20260905151914 | 61 | 228 | 3.5 | 7.0 | 0.00 | 0.00 | 0.01 | 84 | 998.1 |
| 20260905151416 | 62 | 292 | 3.5 | 7.0 | 0.00 | 0.00 | 0.01 | 83 | 998.1 |
| 20260905150913 | 62 | 290 | 4.3 | 7.8 | 0.00 | 0.00 | 0.01 | 83 | 998.0 |
| 20260905150408 | 62 | 286 | 4.3 | 7.8 | 0.00 | 0.00 | 0.01 | 83 | 998.0 |
| 20260905150134 | 62 | 296 | 5.2 | 8.7 | 0.00 | 0.00 | 0.01 | 84 | 998.0 |
| 20260905145409 | 62 | 288 | 5.2 | 8.7 | 0.00 | 0.00 | 0.01 | 84 | 998.1 |
| 20260905144909 | 62 | 248 | 5.2 | 10.4 | 0.00 | 0.00 | 0.01 | 84 | 998.1 |
| 20260905144641 | 62 | 281 | 6.1 | 10.4 | 0.00 | 0.00 | 0.01 | 85 | 998.1 |
| 20260905143908 | 61 | 284 | 7.0 | 13.0 | 0.00 | 0.00 | 0.01 | 85 | 998.1 |
| 20260905143409 | 62 | 275 | 7.0 | 13.0 | 0.00 | 0.00 | 0.01 | 84 | 998.0 |
| 20260905142905 | 62 | 291 | 7.0 | 11.3 | 0.00 | 0.00 | 0.01 | 84 | 998.0 |
| 20260905142358 | 62 | 261 | 7.8 | 13.9 | 0.00 | 0.00 | 0.01 | 83 | 997.7 |
| 20260905141852 | 62 | 270 | 7.8 | 13.9 | 0.00 | 0.00 | 0.01 | 83 | 997.6 |
| 20260905141352 | 63 | 241 | 7.0 | 13.0 | 0.00 | 0.00 | 0.01 | 82 | 997.6 |
| 20260905140851 | 63 | 243 | 7.8 | 13.0 | 0.00 | 0.00 | 0.01 | 82 | 997.7 |
| 20260905140351 | 63 | 261 | 7.0 | 13.0 | 0.00 | 0.00 | 0.01 | 82 | 997.6 |
| 20260905135615 | 64 | 277 | 7.0 | 13.0 | 0.00 | 0.00 | 0.01 | 85 | 997.7 |
| 20260905134850 | 63 | 271 | 7.0 | 13.9 | 0.00 | 0.00 | 0.01 | 86 | 997.6 |
| 20260905134351 | 63 | 230 | 7.8 | 13.9 | 0.00 | 0.00 | 0.01 | 86 | 997.7 |
| 20260905133852 | 62 | 297 | 7.0 | 11.3 | 0.00 | 0.00 | 0.01 | 86 | 997.7 |
| 20260905133351 | 62 | 292 | 7.0 | 12.2 | 0.00 | 0.00 | 0.01 | 88 | 997.5 |
| 20260905132851 | 62 | 248 | 7.0 | 12.2 | 0.00 | 0.00 | 0.01 | 87 | 997.6 |
| 20260905132352 | 62 | 281 | 6.1 | 11.3 | 0.00 | 0.00 | 0.01 | 88 | 997.5 |
| 20260905132113 | 62 | 264 | 6.1 | 11.3 | 0.00 | 0.00 | 0.01 | 89 | 997.3 |
| 20260905131352 | 61 | 278 | 6.1 | 11.3 | 0.00 | 0.00 | 0.01 | 89 | 997.6 |
| 20260905130849 | 61 | 257 | 6.1 | 11.3 | 0.00 | 0.00 | 0.01 | 90 | 997.4 |
| 20260905130343 | 60 | 292 | 6.1 | 11.3 | 0.00 | 0.00 | 0.01 | 90 | 997.2 |
| 20260905125846 | 59 | 290 | 5.2 | 10.4 | 0.00 | 0.00 | 0.01 | 89 | 997.2 |
| 20260905125342 | 59 | 249 | 6.1 | 9.6 | 0.00 | 0.00 | 0.01 | 88 | 997.3 |
| 20260905124841 | 59 | 245 | 7.8 | 17.4 | 0.00 | 0.00 | 0.01 | 87 | 997.3 |
| 20260905124340 | 60 | 261 | 8.7 | 17.4 | 0.00 | 0.00 | 0.01 | 85 | 997.3 |
| 20260905123834 | 60 | 281 | 7.8 | 13.9 | 0.00 | 0.00 | 0.01 | 86 | 997.1 |
| 20260905123334 | 61 | 299 | 8.7 | 13.9 | 0.00 | 0.00 | 0.01 | 85 | 997.0 |
| 20260905123053 | 61 | 288 | 7.8 | 12.2 | 0.00 | 0.00 | 0.01 | 84 | 997.1 |
| 20260905122334 | 62 | 270 | 8.7 | 16.5 | 0.00 | 0.00 | 0.01 | 84 | 996.8 |
| 20260905121833 | 62 | 304 | 7.8 | 16.5 | 0.00 | 0.00 | 0.01 | 84 | 996.9 |
| 20260905121551 | 62 | 314 | 5.2 | 9.6 | 0.00 | 0.00 | 0.01 | 89 | 997.0 |
| 20260905120830 | 62 | 265 | 6.1 | 12.2 | 0.00 | 0.00 | 0.01 | 91 | 996.9 |
| 20260905120331 | 61 | 277 | 6.1 | 12.2 | 0.00 | 0.00 | 0.01 | 90 | 996.9 |
| 20260905115830 | 61 | 194 | 6.1 | 9.6 | 0.00 | 0.00 | 0.01 | 90 | 996.8 |
| 20260905115333 | 60 | 275 | 7.0 | 10.4 | 0.00 | 0.00 | 0.01 | 90 | 996.8 |
| 20260905114831 | 60 | 277 | 5.2 | 10.4 | 0.00 | 0.00 | 0.01 | 90 | 996.7 |
| 20260905114332 | 61 | 240 | 4.3 | 10.4 | 0.00 | 0.00 | 0.01 | 91 | 996.7 |
| 20260905113830 | 61 | 236 | 3.5 | 7.0 | 0.00 | 0.00 | 0.01 | 91 | 996.7 |
| 20260905113330 | 60 | 226 | 4.3 | 7.0 | 0.00 | 0.00 | 0.01 | 91 | 996.6 |
| 20260905112824 | 60 | 258 | 5.2 | 10.4 | 0.00 | 0.00 | 0.01 | 91 | 996.7 |
| 20260905112325 | 60 | 234 | 5.2 | 12.2 | 0.00 | 0.00 | 0.01 | 91 | 996.6 |
| 20260905111824 | 60 | 228 | 5.2 | 12.2 | 0.00 | 0.00 | 0.01 | 91 | 996.6 |
| 20260905111340 | 60 | 243 | 5.2 | 8.7 | 0.00 | 0.00 | 0.01 | 91 | 996.7 |
| 20260905110824 | 60 | 218 | 5.2 | 11.3 | 0.00 | 0.00 | 0.01 | 91 | 996.6 |
| 20260905110325 | 60 | 249 | 5.2 | 11.3 | 0.00 | 0.00 | 0.01 | 91 | 996.7 |
| 20260905105824 | 60 | 232 | 5.2 | 8.7 | 0.00 | 0.00 | 0.01 | 92 | 996.6 |
| 20260905105547 | 60 | 254 | 5.2 | 4.3 | 0.00 | 0.00 | 0.01 | 92 | 996.6 |
| 20260905104501 | 60 | 288 | 4.3 | 8.7 | 0.00 | 0.43 | 0.01 | 92 | 996.4 |
| 20260905103959 | 60 | 235 | 5.2 | 8.7 | 0.00 | 0.43 | 0.01 | 93 | 996.4 |
| 20260905103501 | 60 | 231 | 4.3 | 8.7 | 0.00 | 0.43 | 0.01 | 93 | 996.4 |
| 20260905102957 | 60 | 225 | 4.3 | 7.8 | 0.00 | 0.43 | 0.01 | 93 | 996.3 |
| 20260905102459 | 60 | 250 | 5.2 | 8.7 | 0.00 | 0.43 | 0.01 | 93 | 996.4 |
| 20260905101954 | 59 | 227 | 5.2 | 8.7 | 0.00 | 0.43 | 0.01 | 93 | 996.2 |
| 20260905101723 | 59 | 224 | 5.2 | 8.7 | 0.00 | 0.43 | 0.01 | 93 | 996.2 |
| 20260905100951 | 59 | 214 | 5.2 | 7.8 | 0.00 | 0.43 | 0.01 | 93 | 996.2 |
| 20260905100455 | 59 | 202 | 5.2 | 8.7 | 0.00 | 0.43 | 0.01 | 93 | 996.0 |
| 20260905095951 | 59 | 209 | 5.2 | 8.7 | 0.00 | 0.43 | 0.01 | 93 | 996.0 |
| 20260905095453 | 60 | 205 | 5.2 | 7.0 | 0.00 | 0.43 | 0.01 | 94 | 996.1 |
| 20260905094953 | 59 | 212 | 5.2 | 10.4 | 0.00 | 0.43 | 0.01 | 94 | 995.9 |
| 20260905094712 | 59 | 229 | 5.2 | 10.4 | 0.00 | 0.43 | 0.01 | 94 | 995.9 |
| 20260905093952 | 59 | 204 | 5.2 | 8.7 | 0.00 | 0.43 | 0.01 | 94 | 996.0 |
| 20260905093717 | 59 | 221 | 4.3 | 8.7 | 0.00 | 0.43 | 0.01 | 94 | 996.0 |
| 20260905092949 | 58 | 226 | 4.3 | 8.7 | 0.00 | 0.43 | 0.01 | 94 | 995.8 |
| 20260905092449 | 58 | 245 | 4.3 | 7.8 | 0.00 | 0.43 | 0.01 | 94 | 995.9 |
| 20260905091945 | 58 | 221 | 4.3 | 7.8 | 0.00 | 0.43 | 0.01 | 93 | 995.8 |
| 20260905091446 | 58 | 215 | 4.3 | 7.8 | 0.00 | 0.43 | 0.01 | 93 | 995.8 |
| 20260905091000 | 58 | 234 | 4.3 | 8.7 | 0.00 | 0.43 | 0.01 | 93 | 995.7 |
| 20260905090439 | 58 | 225 | 6.1 | 12.2 | 0.00 | 0.43 | 0.01 | 94 | 995.7 |
| 20260905085940 | 59 | 252 | 6.1 | 12.2 | 0.00 | 0.43 | 0.01 | 94 | 995.7 |
| 20260905085441 | 59 | 238 | 5.2 | 9.6 | 0.00 | 0.43 | 0.01 | 95 | 995.7 |
| 20260905085159 | 59 | 250 | 4.3 | 8.7 | 0.00 | 0.43 | 0.01 | 95 | 995.5 |
| 20260905084438 | 58 | 244 | 5.2 | 10.4 | 0.00 | 0.43 | 0.01 | 96 | 995.7 |
| 20260905083939 | 58 | 250 | 5.2 | 10.4 | 0.00 | 0.43 | 0.01 | 96 | 995.7 |
| 20260905083437 | 58 | 227 | 6.1 | 10.4 | 0.00 | 0.43 | 0.01 | 96 | 995.6 |
| 20260905082938 | 58 | 205 | 5.2 | 10.4 | 0.00 | 0.43 | 0.01 | 96 | 995.6 |
| 20260905082436 | 58 | 209 | 4.3 | 9.6 | 0.00 | 0.43 | 0.01 | 97 | 995.6 |
| 20260905081937 | 57 | 220 | 3.5 | 7.0 | 0.00 | 0.43 | 0.01 | 97 | 995.2 |
| 20260905081435 | 57 | 194 | 3.5 | 7.0 | 0.00 | 0.43 | 0.01 | 97 | 995.3 |
| 20260905080936 | 57 | 236 | 3.5 | 7.0 | 0.00 | 0.43 | 0.01 | 97 | 995.2 |
| 20260905080438 | 57 | 272 | 4.3 | 7.0 | 0.00 | 0.43 | 0.01 | 97 | 995.2 |
| 20260905080200 | 57 | 216 | 3.5 | 7.0 | 0.00 | 0.43 | 0.01 | 97 | 995.2 |
| 20260905075435 | 57 | 260 | 4.3 | 7.8 | 0.00 | 0.43 | 0.01 | 97 | 995.1 |
| 20260905074937 | 57 | 253 | 4.3 | 7.8 | 0.00 | 0.43 | 0.01 | 97 | 995.1 |
| 20260905074434 | 57 | 232 | 3.5 | 7.8 | 0.00 | 0.44 | 0.01 | 97 | 994.9 |
| 20260905073947 | 57 | 208 | 4.3 | 8.7 | 0.00 | 0.45 | 0.01 | 97 | 995.0 |
| 20260905073435 | 56 | 242 | 4.3 | 8.7 | 0.00 | 0.46 | 0.01 | 98 | 994.9 |
| 20260905072933 | 56 | 267 | 4.3 | 7.8 | 0.00 | 0.46 | 0.01 | 97 | 995.0 |
| 20260905072432 | 57 | 207 | 4.3 | 7.8 | 0.00 | 0.46 | 0.01 | 97 | 995.0 |
| 20260905071931 | 57 | 254 | 4.3 | 7.8 | 0.00 | 0.46 | 0.01 | 98 | 994.9 |
| 20260905071911 | 56 | 209 | 5.2 | 8.7 | 0.00 | 0.46 | 0.01 | 98 | 995.0 |
| 20260905070933 | 56 | 265 | 5.2 | 8.7 | 0.00 | 0.46 | 0.01 | 98 | 994.7 |
| 20260905070432 | 56 | 219 | 5.2 | 8.7 | 0.00 | 0.48 | 0.01 | 98 | 994.8 |
| 20260905065935 | 56 | 236 | 5.2 | 8.7 | 0.00 | 0.50 | 0.01 | 98 | 994.7 |
| 20260905065431 | 56 | 217 | 4.3 | 7.8 | 0.00 | 0.50 | 0.01 | 98 | 994.8 |
| 20260905064927 | 56 | 232 | 3.5 | 6.1 | 0.00 | 0.50 | 0.01 | 98 | 994.7 |
| 20260905064651 | 56 | 231 | 3.5 | 5.2 | 0.00 | 0.50 | 0.01 | 98 | 994.8 |
| 20260905063928 | 55 | 231 | 3.5 | 5.2 | 0.00 | 0.50 | 0.01 | 98 | 994.6 |
| 20260905063428 | 55 | 227 | 3.5 | 6.1 | 0.00 | 0.51 | 0.01 | 98 | 994.7 |
| 20260905062925 | 55 | 229 | 4.3 | 11.3 | 0.00 | 0.52 | 0.01 | 98 | 994.6 |
| 20260905062425 | 55 | 213 | 4.3 | 11.3 | 0.00 | 0.52 | 0.01 | 98 | 994.5 |
| 20260905061923 | 55 | 211 | 4.3 | 11.3 | 0.00 | 0.53 | 0.01 | 98 | 994.7 |
| 20260905061416 | 55 | 249 | 5.2 | 7.8 | 0.00 | 0.53 | 0.01 | 98 | 994.7 |
| 20260905060912 | 55 | 215 | 5.2 | 8.7 | 0.00 | 0.53 | 0.01 | 98 | 994.6 |
| 20260905060410 | 55 | 204 | 5.2 | 8.7 | 0.00 | 0.53 | 0.01 | 98 | 994.6 |
| 20260905055909 | 55 | 206 | 5.2 | 9.6 | 0.00 | 0.53 | 0.01 | 98 | 994.4 |
| 20260905055411 | 55 | 203 | 5.2 | 9.6 | 0.00 | 0.53 | 0.01 | 98 | 994.5 |
| 20260905054909 | 54 | 217 | 5.2 | 7.8 | 0.00 | 0.53 | 0.01 | 98 | 994.3 |
| 20260905054410 | 54 | 202 | 5.2 | 7.8 | 0.00 | 0.53 | 0.01 | 98 | 994.5 |
| 20260905053909 | 54 | 217 | 5.2 | 9.6 | 0.00 | 0.53 | 0.01 | 98 | 994.4 |
| 20260905053628 | 54 | 211 | 5.2 | 9.6 | 0.00 | 0.53 | 0.01 | 98 | 994.3 |
| 20260905052908 | 54 | 211 | 5.2 | 8.7 | 0.00 | 0.53 | 0.01 | 98 | 994.3 |
| 20260905052407 | 54 | 202 | 3.5 | 8.7 | 0.00 | 0.53 | 0.01 | 98 | 994.2 |
| 20260905051909 | 54 | 210 | 2.6 | 5.2 | 0.00 | 0.53 | 0.01 | 98 | 994.2 |
| 20260905051407 | 54 | 211 | 2.6 | 6.1 | 0.00 | 0.53 | 0.01 | 98 | 994.2 |
| 20260905050905 | 54 | 206 | 3.5 | 6.1 | 0.00 | 0.53 | 0.01 | 98 | 994.1 |
| 20260905050406 | 54 | 225 | 3.5 | 7.0 | 0.00 | 0.54 | 0.01 | 98 | 994.1 |
| 20260905050122 | 54 | 240 | 3.5 | 8.7 | 0.00 | 0.54 | 0.01 | 98 | 994.1 |
| 20260905045403 | 54 | 246 | 3.5 | 8.7 | 0.00 | 0.55 | 0.01 | 98 | 994.2 |
| 20260905044859 | 54 | 244 | 3.5 | 7.0 | 0.00 | 0.56 | 0.01 | 98 | 994.2 |
| 20260905044351 | 54 | 212 | 3.5 | 6.1 | 0.00 | 0.56 | 0.01 | 98 | 994.2 |
| 20260905043851 | 54 | 209 | 4.3 | 7.0 | 0.00 | 0.56 | 0.01 | 98 | 994.2 |
| 20260905043352 | 54 | 219 | 3.5 | 7.0 | 0.00 | 0.58 | 0.01 | 98 | 994.3 |
| 20260905042849 | 54 | 219 | 3.5 | 7.0 | 0.00 | 0.58 | 0.01 | 98 | 994.2 |
| 20260905042347 | 54 | 211 | 4.3 | 7.0 | 0.00 | 0.58 | 0.01 | 98 | 994.2 |
| 20260905041848 | 53 | 212 | 4.3 | 9.6 | 0.00 | 0.59 | 0.01 | 98 | 994.2 |
| 20260905041347 | 53 | 225 | 4.3 | 9.6 | 0.00 | 0.59 | 0.01 | 98 | 994.3 |
| 20260905040847 | 53 | 201 | 4.3 | 10.4 | 0.00 | 0.59 | 0.01 | 98 | 994.3 |
| 20260905040349 | 53 | 209 | 4.3 | 10.4 | 0.00 | 0.60 | 0.01 | 98 | 994.2 |
| 20260905035847 | 53 | 221 | 5.2 | 8.7 | 0.00 | 0.65 | 0.01 | 98 | 994.3 |
| 20260905035613 | 53 | 196 | 4.3 | 8.7 | 0.00 | 0.68 | 0.01 | 98 | 994.2 |